Location: Zagreb
(45.8000°N, 16.0000°E)
Time: 18:49:55
(UTC+02:00)

A-11 Canister half - Pass Details

Date: 13 August 2022
Orbit: 1524 x 1684 km, 47.3° (Epoch: 05 October)

Event Time Altitude Azimuth Distance (km) Brightness Sun altitude
Rises 05:50:21 0° 226° (SW) 4,891 11.0 -1.3°
Reaches altitude 10° 05:53:31 10° 223° (SW) 3,919 10.6 -0.8°
Maximum altitude 06:03:21 60° 147° (SSE) 1,890 9.7 0.8°
Drops below altitude 10° 06:13:14 10° 71° (ENE) 3,940 13.9 2.4°
Sets 06:16:26 0° 68° (ENE) 4,920 14.9 2.9°
